Wind_Speed
78 79 79 80 81 81 80 80 81 82 83 84 83 83 84 85 86 87 88 90 91 93 95 96 98 100 102 105 107 109 111 113 116 119 122 124 126 127 129 131 132 133 133 134 135 135 136 136 137 138 138 138 138 138 138 138 138 139 139 140 140 140 140 139 136 134 134 135 134 134 133 133 132 130 129 129 128 128 127 126 125 124 124 123 122
76 75 76 77 77 77 78 78 78 78 80 81 81 81 81 82 83 84 85 86 88 90 93 95 96 97 99 101 104 106 108 110 113 115 118 121 123 125 126 128 130 132 133 133 134 135 136 137 138 139 139 139 139 139 139 140 139 140 140 141 142 142 142 141 138 136 134 135 135 135 135 134 133 132 132 131 130 130 129 128 127 126 125 124 123
74 73 73 74 74 75 75 75 75 76 77 78 79 80 80 80 80 81 82 83 84 86 89 91 93 95 97 99 101 103 106 108 110 113 115 118 120 122 124 126 128 130 132 133 133 134 136 137 138 139 139 140 140 140 140 140 140 140 141 141 142 143 144 143 141 138 136 135 136 136 136 135 134 134 134 133 132 132 131 129 129 128 128 126 125
73 72 72 72 72 73 73 73 74 74 75 76 77 78 79 79 79 80 80 81 82 83 85 87 90 92 94 96 98 101 103 105 107 110 112 114 117 119 121 123 125 127 129 131 133 134 134 135 137 139 139 139 140 141 141 142 141 141 141 142 143 144 145 144 143 140 138 137 137 137 138 137 136 136 135 135 135 134 132 131 131 130 130 129 127
72 72 71 70 70 71 71 71 72 72 73 74 75 76 78 78 79 79 80 80 81 82 84 85 87 89 90 92 95 97 100 102 104 106 108 110 113 115 118 120 122 124 126 128 131 133 134 134 135 137 138 139 140 141 142 142 143 142 142 142 143 144 145 145 144 142 140 138 137 138 139 139 138 137 137 137 137 136 135 134 133 132 132 132 130
72 71 70 70 70 70 70 70 70 70 71 72 73 74 75 76 78 78 79 80 81 82 83 84 85 87 88 89 90 93 95 98 101 103 105 107 108 111 114 117 119 121 123 126 128 130 132 134 135 136 137 138 139 141 142 143 143 143 143 143 144 144 145 145 145 144 142 140 138 139 140 140 140 139 139 139 138 138 137 136 135 134 134 133 132
71 70 69 69 69 69 68 68 68 69 69 70 71 72 73 74 75 76 78 79 80 81 82 83 85 85 86 87 88 89 91 93 96 99 102 104 105 107 110 112 115 118 120 123 125 127 129 131 134 135 136 137 138 140 141 142 143 144 144 145 145 145 145 145 145 145 143 141 139 139 140 141 142 141 141 141 140 140 139 138 137 136 136 135 134
70 69 68 68 67 67 67 67 67 68 68 68 69 69 71 72 73 74 75 77 78 79 80 81 83 84 85 85 85 86 87 90 92 95 98 100 102 104 106 108 111 114 117 120 122 124 126 129 131 133 135 136 137 139 140 141 142 143 144 145 146 146 146 146 146 145 144 142 140 140 140 141 142 143 143 143 142 141 140 140 139 138 138 138 137
70 69 68 68 67 66 67 67 67 67 67 67 67 68 69 70 71 72 73 74 76 77 78 79 80 81 82 83 83 84 85 87 89 91 93 96 98 101 103 105 107 109 113 116 118 121 123 125 127 129 132 134 136 137 139 139 141 142 143 145 146 147 147 147 147 146 144 143 141 140 141 141 142 143 144 145 144 143 143 142 141 140 140 140 139
71 70 69 68 66 66 66 66 67 67 66 66 66 66 68 69 70 71 72 73 74 75 77 78 78 79 80 81 81 82 83 84 86 87 89 92 94 96 99 102 104 106 109 111 114 117 119 121 123 126 128 131 133 135 137 138 139 140 142 144 145 146 146 147 148 148 146 144 142 141 141 141 141 142 144 145 146 146 146 145 144 143 142 142 141
71 70 70 68 67 66 65 66 66 66 66 66 65 65 66 68 69 69 70 72 73 74 75 76 77 78 79 79 80 80 81 82 83 84 86 87 89 91 94 97 100 103 106 108 110 112 115 117 120 122 124 127 130 132 135 136 138 139 140 142 143 144 145 146 147 148 148 147 145 143 142 141 140 141 142 144 145 146 147 147 146 145 145 144 143
71 71 70 69 69 67 66 65 65 65 65 65 64 65 66 67 67 67 69 70 71 73 74 74 75 76 77 78 79 79 80 81 82 82 83 84 85 87 89 92 96 99 102 105 107 109 111 113 116 118 120 123 126 128 131 133 135 137 138 139 140 141 142 143 145 146 148 149 148 146 144 142 141 141 141 142 144 146 147 148 148 147 147 146 144
71 70 70 70 70 69 67 66 65 65 65 64 64 64 65 66 66 65 66 67 69 70 71 72 73 74 74 75 77 78 79 79 80 80 81 82 83 84 85 88 91 94 97 101 104 106 107 109 111 114 116 119 121 124 127 129 131 133 135 137 138 138 139 140 142 144 146 147 148 148 146 145 144 144 143 142 143 145 147 148 148 148 147 147 145
70 70 70 70 70 69 68 67 66 65 65 64 64 64 65 65 65 64 64 64 65 66 68 69 70 72 72 73 74 76 77 77 77 78 78 79 81 82 83 85 87 89 92 96 99 102 104 106 108 110 112 115 117 120 122 125 127 129 131 133 134 135 137 138 139 141 143 145 146 147 147 148 148 148 147 146 146 146 146 146 148 148 148 148 146
69 68 68 69 69 69 68 67 66 66 65 65 64 65 64 64 63 63 63 63 63 64 65 66 68 70 71 72 73 74 75 75 75 75 76 77 78 79 81 83 85 87 89 91 93 96 99 102 104 106 108 110 113 116 118 120 122 124 127 129 130 132 133 135 136 138 140 141 143 144 146 148 149 150 150 151 149 147 146 146 146 147 148 148 148
68 67 67 67 67 67 67 66 66 66 65 65 65 64 64 63 63 62 62 62 62 63 64 65 67 68 69 70 72 73 74 74 73 73 74 75 76 77 78 80 82 84 86 88 89 91 94 96 99 102 104 106 109 112 114 116 118 120 122 124 126 128 129 131 133 135 137 139 140 141 144 146 148 149 151 153 152 149 148 147 146 146 147 147 147
67 66 66 66 65 65 65 64 64 65 65 65 65 64 63 63 62 62 62 62 62 62 63 64 65 67 68 69 70 72 73 73 72 72 73 74 74 75 76 77 79 81 84 85 86 87 89 91 94 96 99 102 105 107 109 111 113 115 118 120 122 124 125 128 130 132 134 135 137 138 140 143 146 147 149 151 152 151 150 149 148 147 146 146 145
66 66 65 65 64 64 63 63 63 63 63 64 64 63 63 62 61 61 62 62 62 62 62 63 64 65 66 67 68 69 71 72 71 71 72 73 73 73 74 75 77 79 81 83 84 85 86 87 89 92 95 98 101 103 105 105 107 110 112 115 117 119 121 124 127 129 130 131 132 134 136 139 142 144 146 148 149 149 149 149 149 149 148 147 145
66 65 65 64 63 63 62 62 62 61 61 62 62 62 62 61 60 60 61 61 62 62 61 61 62 63 63 64 65 67 68 69 68 69 71 72 72 72 73 74 76 78 79 81 82 83 84 86 87 89 91 94 97 99 100 101 101 103 105 108 111 114 117 121 124 125 127 128 129 129 131 134 138 141 142 144 145 146 145 146 147 149 150 148 146
66 65 64 64 63 62 62 61 61 61 60 60 61 61 60 59 58 58 59 59 60 60 60 60 60 61 61 62 63 64 65 66 66 66 68 69 70 70 71 73 75 76 78 79 81 82 84 85 86 87 89 90 92 94 95 96 96 98 100 102 105 109 114 118 120 121 124 125 126 126 128 130 132 135 138 140 142 143 142 142 143 146 148 147 146
66 65 64 63 62 62 61 61 60 60 59 59 59 59 58 57 57 57 57 57 58 59 59 58 58 59 60 60 61 61 62 63 63 63 65 66 67 67 69 71 73 74 76 77 79 81 82 84 85 86 86 87 88 89 90 91 93 94 96 98 101 105 109 112 114 116 119 120 122 123 125 126 128 130 132 135 137 140 140 140 140 142 144 145 145
67 66 64 63 62 62 61 60 60 59 58 58 58 58 57 56 55 56 56 56 57 57 57 57 57 58 58 58 58 59 59 60 61 61 62 64 65 65 67 69 71 72 74 75 77 79 80 81 83 84 84 84 85 86 87 88 89 91 93 96 99 101 104 106 108 110 113 115 117 119 121 123 125 127 128 130 132 135 137 138 139 140 141 142 143
67 65 64 63 62 62 61 60 59 58 58 58 58 57 56 55 54 54 54 55 55 56 56 56 56 57 57 57 56 56 56 57 59 60 60 61 63 63 64 66 69 70 71 73 75 76 77 79 80 81 81 82 83 83 84 85 87 89 91 94 96 98 100 101 103 105 107 109 111 113 115 117 120 123 125 127 128 130 132 134 135 137 139 140 140
66 64 63 62 61 61 60 59 58 57 57 57 57 57 55 54 54 53 53 53 54 55 55 55 55 56 56 55 54 53 53 55 56 57 58 60 61 61 62 64 65 67 69 71 72 73 74 76 77 78 78 79 80 81 82 83 85 87 89 92 93 95 97 98 99 101 102 104 105 107 109 111 114 117 120 123 126 128 129 129 130 131 134 136 137
65 63 62 61 60 60 59 58 57 56 55 55 55 55 55 54 53 53 52 52 53 54 54 54 54 54 55 55 53 51 51 52 54 55 56 58 59 60 60 61 62 64 66 68 70 71 72 73 74 75 76 76 77 78 79 81 83 85 87 88 90 92 93 94 96 97 98 99 100 102 103 105 107 110 113 117 121 123 125 126 126 127 128 130 131
64 62 61 60 59 58 58 57 56 55 54 54 54 54 53 53 53 52 51 51 52 52 53 53 53 53 54 54 53 50 49 50 52 53 54 57 59 58 58 59 60 61 63 65 66 68 69 70 71 72 73 74 74 75 76 78 80 82 84 86 87 88 90 91 92 93 94 95 97 98 99 100 102 104 106 109 113 116 119 122 124 125 126 126 127
63 61 60 59 58 57 56 55 55 54 53 52 52 52 52 52 52 51 50 50 51 51 52 52 52 52 53 53 51 49 47 47 49 50 53 56 58 57 57 58 58 59 60 61 63 65 66 68 69 69 70 71 72 73 74 75 77 79 81 83 84 85 86 87 88 89 90 91 93 94 95 96 98 99 101 103 105 108 112 116 119 121 123 124 124
62 61 59 58 57 56 55 54 54 53 52 51 50 50 50 50 51 50 49 49 50 50 50 51 51 51 52 51 50 48 46 45 46 48 51 55 57 55 54 56 56 56 57 58 60 63 64 65 66 67 68 69 70 71 72 73 75 76 78 80 81 81 82 83 83 84 85 87 89 90 92 93 93 95 96 98 100 102 105 108 111 114 117 120 121
61 60 58 57 57 56 54 53 52 52 51 50 49 48 48 48 49 49 48 48 49 50 50 50 51 50 51 50 48 47 45 43 43 46 49 54 56 54 53 54 54 53 54 56 58 60 61 62 63 65 66 68 68 69 70 71 73 74 75 76 77 78 78 78 78 79 81 82 84 86 88 89 90 91 92 94 95 98 100 102 104 107 110 114 116
60 59 57 56 55 54 53 52 51 51 50 49 48 47 46 46 47 47 47 47 48 49 49 49 50 50 50 49 47 46 45 42 42 44 48 52 55 53 51 51 52 52 52 54 55 57 58 60 61 63 64 65 66 67 68 69 70 71 72 73 74 74 74 74 74 75 76 78 80 82 83 85 86 87 88 89 91 93 96 98 100 102 105 107 109
59 57 56 55 54 53 52 51 50 50 49 48 47 46 45 44 44 46 46 46 46 47 48 49 49 49 49 48 46 45 44 42 41 42 47 51 54 52 49 49 50 51 51 51 53 54 56 58 60 61 62 63 64 65 66 67 68 69 70 70 71 72 72 72 71 71 73 74 76 77 79 81 82 84 85 86 87 89 92 94 96 99 101 102 104
57 56 55 54 53 51 51 50 49 49 48 47 47 46 45 44 42 43 45 46 45 45 46 48 48 48 47 46 45 44 43 42 41 41 45 50 53 51 49 47 47 48 49 51 52 53 54 56 58 60 61 62 62 63 64 64 65 66 67 68 69 69 69 69 68 69 70 71 72 74 75 76 78 80 81 83 84 86 88 90 92 95 97 99 101
55 54 53 52 51 51 50 49 48 48 47 46 46 45 45 45 43 41 42 44 45 45 45 46 47 47 45 45 44 42 41 41 41 41 44 48 51 50 48 45 44 46 49 50 51 51 52 54 57 58 58 59 60 61 62 62 63 64 65 65 66 66 67 66 66 66 67 68 70 71 72 73 74 76 77 79 81 83 85 87 89 91 93 95 97
53 52 51 51 50 49 49 48 47 46 46 45 45 44 44 44 44 42 40 41 43 45 46 46 46 45 44 43 43 42 40 40 40 41 43 47 49 48 46 44 44 46 48 48 48 49 51 53 55 55 56 57 58 58 59 60 61 62 62 62 63 64 64 64 64 64 65 66 67 68 69 69 71 72 73 75 77 79 82 84 86 88 89 90 92
52 51 50 49 48 47 47 46 46 45 45 44 43 43 43 43 43 42 41 40 40 42 44 46 46 45 43 42 41 40 39 39 40 42 43 45 45 44 43 43 44 45 46 45 46 48 49 51 52 53 53 54 55 56 57 58 58 59 59 59 60 61 61 62 62 62 62 63 64 64 65 66 67 68 70 71 73 75 77 80 82 84 85 87 88
51 50 49 48 47 46 45 45 44 44 44 43 42 42 42 41 41 41 41 40 40 40 42 44 45 45 43 41 40 39 38 38 39 42 43 43 42 42 41 42 42 42 43 43 44 46 47 49 50 50 51 52 52 53 54 55 55 56 57 57 57 58 59 60 60 60 60 61 61 61 62 62 64 65 66 68 69 71 73 75 77 80 82 84 85
51 50 49 48 47 46 45 44 43 42 42 42 41 41 40 40 40 40 39 40 40 39 40 41 43 44 43 41 39 38 37 37 39 41 42 41 40 40 40 39 39 39 40 41 42 44 45 46 47 47 48 49 50 51 51 52 53 53 54 54 55 55 56 57 58 58 58 58 58 58 58 59 60 62 63 65 66 68 69 71 74 76 79 81 83
49 48 48 47 46 45 44 43 42 42 41 40 40 40 39 39 39 38 38 38 38 39 39 40 41 42 42 41 39 37 37 37 38 40 40 39 38 38 38 37 36 37 38 39 41 41 42 43 44 45 45 46 47 48 49 49 50 51 51 51 52 53 54 54 55 55 55 56 56 56 56 56 57 59 61 62 64 66 67 69 71 73 76 78 80
48 47 46 46 45 45 44 43 42 41 41 40 39 39 39 38 38 38 37 37 37 38 38 39 40 40 40 40 38 36 36 36 37 38 38 37 36 36 36 36 35 36 37 38 38 39 39 40 42 42 43 43 44 45 46 47 47 48 48 48 49 50 51 51 52 52 53 53 54 54 54 54 55 56 58 60 61 63 65 66 68 70 72 74 76
46 45 45 44 44 43 43 42 42 41 40 39 38 38 38 37 37 37 37 37 37 37 37 38 38 38 38 38 37 36 35 35 36 37 37 36 35 35 35 35 35 35 36 37 37 37 38 39 39 40 40 41 42 43 44 44 45 45 45 46 46 47 48 49 49 50 50 51 51 51 52 52 53 54 55 57 58 60 62 63 65 67 69 71 73
46 44 43 43 43 43 42 41 41 40 40 39 38 37 37 37 36 36 36 36 36 36 36 37 37 37 36 36 36 36 35 34 35 36 36 35 34 34 35 35 34 35 36 36 35 35 36 37 38 38 38 39 40 41 42 42 42 43 43 43 44 45 45 46 47 47 47 48 48 49 50 50 51 52 53 54 56 58 59 61 63 64 66 68 70
45 43 42 42 41 41 41 40 40 39 39 39 39 38 37 36 35 35 35 35 35 35 36 36 36 36 35 35 34 35 35 35 34 34 35 34 33 34 35 35 35 35 35 35 35 35 35 36 36 36 36 37 38 39 40 40 41 41 41 41 42 42 43 44 44 45 45 45 45 46 47 48 49 50 51 52 54 55 57 59 61 62 64 66 67
44 43 42 41 40 40 40 40 39 38 38 38 38 38 37 36 35 34 34 34 34 35 35 35 35 35 34 34 33 34 34 35 34 34 34 34 33 34 35 35 35 35 35 35 35 35 36 36 36 35 36 36 37 38 38 39 39 39 39 40 40 40 41 41 42 42 42 42 43 43 44 45 47 48 49 50 52 53 55 57 59 60 62 64 65
44 42 41 40 40 39 39 39 38 37 37 37 37 37 37 36 35 34 34 33 33 34 34 34 35 35 34 33 33 33 34 34 35 34 33 33 33 34 35 35 35 35 35 35 35 35 36 36 35 35 35 35 36 36 37 37 38 38 38 38 38 38 39 39 39 39 40 40 41 41 42 43 45 46 47 49 50 52 53 55 57 58 60 62 63
43 42 41 40 39 39 39 38 37 37 36 36 36 36 36 35 35 34 33 33 33 33 33 34 34 35 34 34 33 33 33 34 34 34 33 33 33 34 35 35 35 35 35 35 35 35 36 36 36 35 35 35 35 35 36 36 36 37 37 37 37 37 37 37 37 37 38 38 39 39 40 41 42 44 45 47 48 50 51 53 55 57 58 60 61
42 41 41 40 39 38 38 37 37 36 36 35 35 35 35 35 34 34 33 33 32 32 32 33 33 34 34 34 33 33 33 33 34 34 34 33 33 34 35 35 35 35 35 35 35 35 35 35 35 35 34 34 34 35 35 35 35 35 35 35 35 36 36 36 36 36 36 36 37 37 38 39 40 42 43 45 46 48 49 51 52 54 56 58 59
42 41 40 39 39 38 37 37 37 36 35 35 34 34 34 34 34 33 33 33 32 32 32 32 33 33 34 34 34 33 33 33 34 35 34 33 33 34 35 35 34 34 34 34 34 34 34 34 34 34 33 33 34 34 34 34 34 34 34 34 34 34 35 35 35 35 35 35 35 36 36 37 38 40 41 43 44 45 47 48 49 51 53 54 56
42 41 40 39 39 38 37 37 37 36 36 35 34 34 33 33 33 33 33 32 32 32 32 32 33 33 34 34 34 33 33 33 34 34 34 33 33 34 35 35 34 33 33 33 33 33 33 33 33 33 32 32 33 33 33 33 33 33 33 33 33 33 33 34 34 34 34 34 34 34 35 36 37 38 39 41 42 43 44 45 47 48 49 51 52
42 41 40 39 39 38 37 37 37 36 36 35 34 34 33 33 32 32 32 32 32 31 31 32 32 33 34 34 34 34 33 33 33 34 34 33 32 33 34 34 33 32 32 32 32 31 31 32 32 32 31 31 31 32 32 32 31 31 31 31 31 32 32 32 33 33 33 33 33 33 34 34 35 36 37 39 40 41 42 43 44 45 46 48 49
42 41 40 39 39 38 37 37 36 36 36 35 34 34 33 33 32 32 32 31 31 31 31 31 31 32 33 34 34 34 33 32 32 33 33 33 32 32 33 33 33 32 32 32 31 31 30 31 31 31 30 30 30 30 31 31 30 30 30 30 30 30 31 31 31 32 32 32 32 32 33 33 34 35 36 37 38 39 40 41 42 42 44 45 46
42 41 40 39 38 37 37 36 36 35 35 35 34 33 33 32 32 32 31 31 31 30 30 30 30 31 32 33 34 34 33 33 32 32 32 32 32 32 33 33 32 31 31 31 31 30 30 30 30 30 29 29 29 29 29 29 29 28 28 29 29 29 30 30 30 31 31 31 31 31 32 32 33 34 34 35 36 37 37 38 39 40 41 42 43
Wind_Direction
286 285 283 282 281 280 278 277 276 275 274 272 271 269 267 265 264 262 260 259 258 257 256 254 253 252 251 251 250 250 248 247 247 246 246 247 246 246 246 246 246 246 245 244 244 244 244 244 243 244 244 243 242 242 241 241 240 241 242 243 243 243 243 242 241 240 241 243 243 244 245 245 244 244 243 242 243 243 244 244 245 246 247 248 248
287 285 284 283 281 280 279 277 276 275 274 273 272 270 268 266 265 263 261 259 258 257 256 255 254 253 252 251 250 250 249 248 247 246 246 246 246 246 245 245 246 246 245 245 244 244 244 244 243 243 243 243 243 243 242 242 241 240 241 241 242 243 243 243 242 241 241 242 243 243 244 245 245 245 244 243 243 243 243 244 244 245 246 247 247
288 287 285 284 283 281 280 278 277 276 275 274 273 272 270 268 266 264 263 261 259 257 256 255 255 253 252 251 250 250 249 249 248 247 246 246 245 245 245 245 245 245 245 245 245 244 243 243 243 243 243 243 243 243 243 243 242 241 241 241 241 242 243 243 243 242 241 241 242 243 243 244 244 245 245 245 244 243 243 243 244 244 244 245 246
290 289 287 286 284 282 281 279 278 277 275 274 273 272 271 270 268 266 265 263 261 259 257 256 255 254 252 251 251 250 250 249 248 248 247 246 246 245 245 245 244 244 245 245 245 245 244 243 243 243 243 243 243 243 243 243 243 243 242 241 241 241 242 242 242 242 241 241 242 243 243 243 243 244 245 246 246 245 244 243 243 244 244 244 244
292 290 289 287 285 283 282 280 278 277 276 274 273 271 271 270 269 268 266 265 263 261 259 257 256 254 253 252 251 250 250 249 249 249 248 247 246 246 246 245 244 244 244 244 244 245 244 244 244 243 243 243 243 243 243 243 243 243 243 243 242 242 242 242 242 241 241 240 241 242 244 244 244 243 244 245 246 246 246 245 244 244 244 244 244
293 291 290 288 286 284 283 281 279 277 276 274 273 271 270 269 268 267 266 265 263 262 261 259 258 256 254 253 251 250 250 249 249 249 249 248 247 246 246 246 245 244 244 244 244 244 244 244 244 244 243 243 243 243 243 243 243 243 243 243 243 243 243 243 243 242 241 239 239 240 242 243 244 244 244 244 245 246 246 246 246 245 245 245 245
293 292 290 288 287 285 284 282 280 278 276 274 273 272 271 269 268 267 266 265 264 263 262 261 260 258 257 255 253 251 250 249 249 249 249 249 248 247 246 246 246 245 245 244 243 243 243 243 244 244 244 243 243 243 242 242 242 243 243 243 244 244 244 243 243 243 242 240 239 238 239 240 242 244 245 245 245 246 246 247 247 247 246 246 246
294 292 290 289 287 286 284 283 281 279 277 276 274 273 271 270 268 267 266 265 264 263 262 261 260 259 258 257 255 254 252 250 249 248 248 248 248 248 247 246 245 245 245 245 244 243 243 243 243 243 243 243 243 243 243 242 242 242 242 243 243 243 244 244 244 244 243 242 240 238 237 238 239 241 243 245 246 246 247 247 247 248 248 247 247
295 293 291 290 288 287 285 283 281 280 278 277 275 274 272 271 269 268 266 265 264 264 263 262 261 260 259 258 257 256 254 252 251 249 248 247 247 247 247 247 246 245 245 245 245 244 244 243 243 243 243 243 243 243 243 243 243 242 242 242 242 243 243 244 244 245 244 243 242 240 239 237 237 238 239 241 243 245 246 247 247 248 248 248 248
296 295 293 291 289 288 286 284 282 281 279 277 275 274 272 271 270 268 267 266 265 264 263 262 262 261 260 259 258 257 255 254 253 251 250 248 247 247 247 247 247 246 245 245 245 245 245 244 243 243 243 243 243 243 243 243 243 243 242 242 242 242 243 243 244 244 245 245 244 242 241 239 238 237 238 239 240 242 243 245 246 247 247 248 249
297 295 294 293 291 289 287 285 284 282 280 278 277 275 273 271 270 269 268 267 266 265 264 263 262 262 261 260 259 257 256 255 254 253 251 250 248 247 247 246 246 247 246 246 245 244 244 244 244 243 243 243 243 243 243 243 243 243 243 243 242 242 242 243 243 243 244 245 245 244 243 242 240 239 238 238 238 239 241 242 243 245 246 247 248
298 296 295 294 292 290 289 287 286 284 282 281 279 277 274 272 271 269 268 267 266 266 265 264 263 262 261 261 260 259 257 256 255 254 253 252 250 248 247 246 246 246 246 246 246 245 244 244 244 244 244 243 242 243 243 243 243 243 243 243 243 243 243 243 243 243 243 244 245 245 244 244 243 242 240 239 238 239 239 240 240 242 243 245 246
298 297 296 295 293 291 290 289 287 285 284 282 281 278 276 274 273 271 269 268 267 266 265 265 264 263 261 260 260 259 258 257 256 255 253 252 252 250 249 247 246 245 245 245 246 246 245 244 244 244 244 244 243 243 243 243 243 243 243 243 243 243 243 243 243 243 243 243 244 244 244 244 244 244 243 242 241 240 239 239 239 240 240 242 243
298 297 296 294 293 292 291 289 287 286 285 283 281 279 278 276 274 272 270 269 267 266 265 265 264 263 262 261 260 259 259 258 257 256 255 253 252 251 250 249 248 246 246 245 245 245 245 245 245 244 243 243 244 243 243 243 243 243 243 243 243 243 243 243 243 243 243 243 243 244 244 244 244 244 244 244 243 242 241 240 240 239 239 239 240
298 297 295 294 293 292 290 289 288 286 285 283 281 280 278 277 275 273 272 270 268 267 265 264 264 263 262 262 261 260 259 258 257 256 255 254 253 252 251 250 249 248 247 246 245 245 245 245 245 245 244 243 243 243 243 243 243 243 243 243 244 243 243 243 243 243 243 243 243 243 243 243 243 243 244 244 244 244 243 242 241 240 240 239 238
299 297 295 294 292 291 290 289 288 286 285 283 281 280 278 277 276 274 273 271 269 268 266 265 264 263 262 262 261 261 260 259 257 256 255 254 253 252 251 250 250 250 249 248 246 245 245 245 245 245 245 245 244 243 243 243 243 243 243 243 243 243 243 243 243 243 243 243 243 243 243 243 243 243 243 243 244 244 244 244 243 242 241 240 239
299 297 295 294 292 291 290 289 288 286 285 283 282 280 279 278 277 275 274 272 270 269 267 266 264 263 263 262 261 261 260 259 258 257 256 254 253 252 251 251 250 250 250 249 248 247 246 245 244 244 245 245 245 244 243 243 242 243 243 243 243 243 243 243 243 243 243 243 243 242 242 242 243 243 242 242 243 243 244 244 244 244 243 242 241
299 297 296 294 293 292 291 290 288 287 285 284 282 281 280 279 277 276 274 273 271 270 268 267 265 264 263 262 261 260 260 259 258 257 256 255 254 253 252 251 250 250 250 250 250 249 248 246 245 244 244 244 245 245 245 244 243 242 243 243 243 243 243 243 243 244 243 243 243 242 242 242 242 243 243 243 242 243 243 243 244 244 244 244 242
299 297 296 295 294 293 292 291 289 287 286 284 283 282 280 279 278 276 275 274 272 271 269 268 266 265 264 263 261 260 259 259 258 257 256 255 254 253 252 251 250 250 249 249 249 249 249 248 247 246 245 244 244 245 245 245 244 244 243 243 243 243 243 243 243 243 243 243 243 243 242 242 242 242 243 243 243 243 243 243 243 243 244 244 243
299 298 296 295 294 293 292 291 290 288 287 286 284 282 281 280 279 277 276 274 273 272 270 269 267 266 264 263 262 261 260 259 258 257 256 256 255 254 252 251 250 250 249 249 249 249 249 248 248 247 246 246 246 245 245 245 245 245 244 243 243 242 242 243 243 243 243 243 243 243 243 243 242 242 242 243 243 243 243 243 243 243 243 243 244
299 298 296 295 295 293 292 291 290 289 288 286 285 283 282 281 280 278 276 275 274 272 271 270 268 267 265 264 262 262 261 260 259 258 256 256 255 254 253 252 251 250 249 249 248 248 248 248 248 248 248 247 247 247 246 246 245 245 244 244 243 242 242 242 243 243 243 243 243 243 243 243 243 243 242 242 242 243 243 243 243 243 243 243 243
300 298 297 296 295 294 292 291 290 289 288 287 285 284 283 282 280 279 277 276 274 273 272 270 269 267 266 264 263 262 261 261 260 259 257 256 255 254 252 252 251 251 250 249 249 248 248 248 249 249 249 248 248 247 247 246 245 245 244 244 243 243 243 243 242 242 243 243 243 242 242 242 243 243 243 242 242 242 242 242 242 242 243 242 242
300 299 298 297 295 294 292 291 290 289 288 287 286 285 284 282 281 279 277 276 275 273 272 270 269 267 266 265 263 262 261 261 260 259 258 257 256 254 253 252 252 251 251 250 250 249 249 249 249 249 249 248 248 248 247 246 246 245 244 244 243 243 243 243 243 242 242 242 242 242 242 242 242 242 243 243 243 242 242 242 241 241 241 242 242
300 299 298 297 295 293 292 291 290 289 288 287 286 285 284 283 281 279 278 276 275 274 272 270 269 268 267 266 264 263 261 260 260 259 259 257 256 255 254 252 252 252 251 251 251 250 250 250 249 249 249 248 248 248 247 247 246 245 245 244 244 244 243 243 243 243 243 243 242 242 242 242 241 241 241 242 243 243 243 242 242 241 241 241 241
301 300 299 297 295 293 292 291 290 289 288 286 285 285 284 283 281 279 278 276 275 274 272 271 270 269 268 267 265 263 262 261 260 259 259 258 257 255 254 253 252 252 251 251 251 251 251 250 250 250 249 249 248 248 247 247 247 246 245 245 245 244 244 244 244 244 243 243 243 242 242 242 242 241 241 241 241 242 243 243 243 243 242 242 241
302 301 299 298 296 294 293 291 290 289 287 286 285 284 283 282 281 279 278 276 274 273 272 271 270 269 268 268 267 265 262 261 260 260 259 258 257 256 255 254 253 252 251 251 251 252 251 251 251 250 250 249 249 248 247 247 247 246 246 246 245 245 245 244 244 244 244 244 243 243 242 242 242 241 241 241 241 241 241 242 243 243 243 243 242
303 301 300 299 297 295 294 292 291 289 287 286 285 284 283 282 281 279 278 276 274 273 272 271 270 270 269 268 267 266 263 261 260 260 259 258 257 256 255 254 253 252 251 251 252 252 251 251 251 251 250 250 249 249 248 248 247 247 247 247 246 246 245 245 245 244 244 245 244 244 243 242 241 241 241 241 241 240 240 241 241 242 243 243 243
303 302 301 299 298 296 295 293 291 289 288 286 285 283 282 281 280 279 278 276 275 273 272 271 271 270 269 269 268 267 264 261 260 259 259 259 258 256 255 254 253 252 251 251 251 251 251 251 251 251 251 250 250 249 249 249 248 248 248 248 247 247 246 245 245 245 244 244 245 244 244 243 242 241 241 241 241 240 240 240 240 241 241 242 242
303 302 301 300 298 296 295 293 292 290 288 287 285 283 282 281 280 279 277 276 275 274 272 272 271 271 270 270 269 268 266 262 260 258 258 258 259 257 255 255 254 252 251 250 250 251 251 251 251 251 251 250 250 250 250 249 249 249 249 249 249 248 248 246 245 245 244 244 244 244 244 244 243 242 241 240 240 240 240 240 239 240 240 240 241
303 302 301 299 298 297 295 294 292 290 289 288 286 284 282 281 280 278 277 275 274 274 272 272 271 271 270 270 270 269 267 263 260 258 257 258 258 258 256 255 255 253 251 250 250 250 251 251 251 251 251 251 250 250 250 250 250 250 250 250 250 250 249 248 246 245 245 244 243 243 243 243 243 243 242 241 240 240 239 239 239 239 239 239 239
303 302 301 299 298 297 295 294 292 291 290 288 287 285 283 281 279 278 277 275 273 273 273 272 271 271 270 270 269 268 267 264 260 258 257 258 259 259 257 255 255 255 254 252 251 250 250 250 251 251 251 251 251 251 250 250 250 250 251 251 251 250 250 249 248 247 245 244 244 243 242 242 242 242 242 241 240 240 239 239 238 238 238 238 238
303 302 301 300 298 297 295 294 293 291 290 289 287 286 284 282 279 278 277 276 274 272 271 271 271 271 271 270 269 268 266 264 261 257 256 258 259 259 258 256 255 256 255 253 252 251 250 250 251 251 251 251 252 252 251 251 251 251 251 251 251 251 251 250 249 248 247 246 245 244 242 242 241 241 241 240 240 240 239 239 238 238 238 238 238
304 303 302 300 299 298 296 295 293 292 290 289 287 286 285 283 281 278 277 276 275 273 271 271 271 271 270 270 269 268 266 264 262 258 256 257 259 260 259 258 257 255 255 254 253 252 251 251 251 251 251 252 252 252 252 252 252 251 251 251 251 251 251 250 249 247 246 246 245 244 243 242 241 240 240 239 239 239 239 239 239 238 238 237 237
304 303 302 300 299 298 297 295 294 292 291 289 288 286 285 284 282 280 277 275 275 275 274 272 271 271 270 270 269 268 266 264 262 259 257 257 259 260 261 259 257 255 254 254 254 253 252 251 251 252 251 251 251 251 252 252 251 251 251 251 251 251 251 250 249 248 247 245 245 244 243 243 241 240 239 239 238 238 238 238 238 238 238 237 237
305 303 302 301 300 298 297 296 295 293 291 290 288 286 284 283 282 281 278 275 273 273 274 274 273 272 271 270 269 268 266 264 262 261 259 259 259 260 260 258 256 255 255 254 253 253 252 252 252 252 251 251 251 251 251 251 251 251 251 251 251 251 251 250 250 249 248 247 245 244 243 243 242 241 240 239 238 237 237 237 237 238 238 238 237
306 305 303 302 301 299 298 296 295 293 292 290 289 287 285 283 281 280 279 277 274 272 272 273 274 274 273 271 269 268 265 263 261 261 260 260 260 259 258 257 256 255 255 254 253 252 252 252 252 251 251 251 251 251 251 251 251 251 251 251 250 250 250 250 250 249 248 248 247 245 244 243 242 241 240 239 238 237 236 236 236 236 236 237 237
307 306 304 303 302 300 299 297 295 294 292 291 289 287 285 283 282 280 278 277 275 273 272 271 272 273 273 273 270 268 266 263 260 260 260 260 260 259 258 256 255 255 254 253 252 252 251 252 252 251 251 251 251 251 251 250 250 250 250 250 250 250 250 250 249 249 248 248 247 246 244 243 241 241 240 239 238 237 236 235 234 234 234 234 235
307 306 305 303 302 301 299 298 296 295 293 291 290 288 286 284 282 280 278 276 275 274 272 271 270 271 271 271 270 267 265 263 261 260 260 259 259 258 258 256 255 253 253 252 252 252 251 251 251 251 251 250 250 250 250 250 250 250 250 250 249 249 249 249 248 248 247 247 247 246 245 243 241 240 239 238 238 237 236 235 234 233 233 232 233
307 306 305 303 302 301 299 298 297 295 294 292 290 288 286 285 283 281 279 277 275 273 272 271 270 270 270 270 269 266 263 262 261 261 261 260 258 257 257 256 255 253 253 252 252 252 252 251 251 251 251 250 250 250 250 250 250 249 249 249 248 248 248 247 247 247 246 246 246 245 245 243 241 240 239 238 237 236 236 235 234 234 233 232 232
308 306 305 303 302 300 299 299 297 296 294 293 291 289 287 285 283 281 280 278 276 274 272 271 270 270 269 269 268 266 263 261 261 262 262 260 259 258 257 256 255 254 253 253 252 252 252 252 251 251 250 250 250 250 250 249 249 249 248 248 247 247 247 247 246 246 245 245 245 244 244 243 242 240 238 237 236 236 235 235 234 234 233 233 232
309 307 306 304 303 301 300 299 298 296 295 294 292 290 288 286 284 282 281 279 277 275 274 272 271 270 269 269 268 267 265 263 261 261 261 260 259 258 258 257 255 254 254 253 253 252 252 251 251 251 250 250 250 250 249 249 249 248 247 247 247 246 246 246 246 245 245 244 243 243 243 242 241 240 238 237 236 235 234 234 233 233 233 232 232
310 308 307 305 304 302 301 300 298 297 296 294 293 291 289 287 285 283 281 280 278 277 275 274 272 271 270 269 268 267 266 265 263 262 261 260 259 258 258 257 256 256 255 255 254 253 252 251 251 251 250 250 250 250 249 249 248 247 247 246 245 245 245 245 245 245 244 243 242 242 241 241 240 239 238 237 235 234 234 234 233 233 232 232 232
311 309 308 306 304 303 301 300 299 297 296 295 294 292 291 289 287 285 282 280 279 277 276 275 274 272 271 269 268 266 266 266 264 263 262 261 260 259 258 258 257 257 257 256 255 254 253 252 251 250 249 249 249 249 248 248 247 246 246 245 244 244 244 244 244 244 244 243 242 241 240 239 239 238 237 236 235 234 234 233 233 233 233 232 232
311 310 309 307 305 303 302 300 299 298 296 295 293 292 291 290 288 286 283 281 279 277 276 275 274 273 271 270 267 266 265 265 265 264 263 262 261 260 260 259 259 258 257 257 255 254 254 253 252 250 249 248 248 247 247 247 246 246 245 244 243 243 243 243 243 243 243 243 242 241 240 238 238 237 237 236 235 234 233 233 233 233 233 233 233
312 310 309 308 306 304 303 301 300 298 297 295 294 292 291 290 288 286 284 282 280 278 276 274 273 273 271 270 268 266 265 264 264 264 263 262 261 261 260 260 260 259 258 257 255 254 253 253 251 250 249 248 247 247 246 246 246 245 244 243 242 242 242 242 243 243 243 243 242 241 239 238 237 236 236 235 234 234 233 232 232 232 232 233 233
313 311 310 308 307 305 303 302 300 299 297 295 293 292 290 289 288 286 285 283 280 278 276 274 272 272 271 269 268 266 265 264 264 263 262 262 261 261 261 260 259 259 258 257 256 254 253 252 251 249 248 247 246 246 245 245 245 244 243 242 242 241 241 241 241 241 242 242 241 241 240 239 237 236 235 235 234 233 233 232 232 232 232 232 233
313 312 311 309 308 306 304 302 301 299 298 296 294 292 290 288 287 286 284 282 280 278 276 274 272 271 270 269 268 266 265 264 263 263 263 261 261 260 260 260 259 258 257 256 255 254 253 252 251 249 247 246 245 245 244 244 244 243 242 241 241 240 240 240 239 240 240 240 240 239 239 238 237 236 235 234 233 233 232 232 231 231 232 232 233
314 313 311 310 308 307 305 303 301 300 298 296 294 293 290 288 287 285 283 282 280 278 276 274 272 271 270 269 267 266 265 263 263 263 263 261 260 259 259 259 258 257 256 255 254 253 252 251 250 249 247 245 245 244 244 243 242 242 242 241 240 239 239 239 239 239 239 239 239 238 237 237 236 234 233 232 232 231 231 231 230 230 231 231 232
314 313 312 310 309 307 305 304 302 301 299 297 295 293 291 289 287 285 283 281 279 277 275 274 272 271 270 269 268 266 265 263 262 262 262 261 259 258 257 257 257 256 255 254 253 252 251 251 250 248 246 244 243 243 243 242 242 241 241 240 239 238 238 238 238 238 238 238 237 237 237 236 235 234 232 231 230 230 230 229 229 229 230 230 231
315 313 312 311 309 308 306 304 303 301 300 298 296 294 292 290 288 286 283 281 279 277 275 273 271 270 269 269 268 267 265 263 261 260 260 260 258 257 256 256 255 254 253 253 252 251 250 249 249 248 246 244 243 242 241 241 241 240 240 239 239 238 237 236 236 236 237 237 236 236 236 235 235 234 232 231 230 229 229 228 228 228 229 229 230
316 314 313 311 310 308 307 305 303 302 300 298 297 295 293 291 289 286 284 282 280 277 274 272 270 268 267 267 267 267 265 264 262 260 259 258 257 256 255 255 253 252 251 251 251 250 249 248 248 247 245 243 242 241 240 239 239 239 239 238 238 237 236 235 235 235 235 235 235 235 235 234 234 233 232 231 230 229 228 228 228 228 228 228 229
Height
10020 10015 10011 10006 10003 10001 9999 9997 9995 9991 9988 9987 9987 9988 9987 9987 9987 9989 9989 9990 9991 9992 9992 9992 9994 9997 9999 10001 10003 10006 10009 10012 10016 10019 10022 10026 10031 10036 10041 10045 10050 10055 10062 10068 10074 10079 10086 10091 10096 10101 10107 10113 10119 10124 10130 10136 10142 10147 10152 10157 10163 10168 10174 10182 10197 10207 10206 10210 10218 10221 10224 10232 10240 10248 10255 10260 10265 10269 10274 10279 10283 10286 10291 10296 10302
10006 10002 9998 9993 9990 9988 9985 9983 9981 9978 9975 9972 9971 9971 9971 9971 9971 9971 9973 9974 9975 9975 9975 9975 9977 9980 9982 9984 9985 9987 9991 9994 9997 10000 10003 10007 10011 10016 10022 10026 10030 10034 10040 10046 10053 10059 10065 10070 10076 10081 10086 10093 10099 10104 10110 10116 10123 10129 10134 10139 10144 10149 10155 10163 10176 10188 10194 10197 10201 10204 10209 10216 10222 10229 10234 10241 10248 10252 10257 10264 10269 10273 10277 10282 10287
9993 9989 9985 9981 9977 9974 9972 9969 9967 9964 9962 9959 9956 9955 9955 9955 9955 9955 9956 9957 9958 9959 9959 9959 9960 9963 9965 9966 9968 9970 9973 9976 9979 9981 9984 9988 9992 9997 10002 10007 10011 10015 10019 10024 10031 10037 10044 10050 10055 10060 10066 10073 10079 10084 10090 10096 10102 10109 10115 10120 10126 10131 10136 10144 10154 10167 10177 10183 10185 10188 10193 10200 10206 10211 10215 10221 10229 10234 10242 10249 10253 10257 10263 10268 10273
9980 9976 9972 9968 9964 9961 9959 9956 9953 9950 9948 9945 9943 9941 9940 9940 9939 9939 9940 9941 9942 9942 9943 9943 9943 9945 9948 9949 9951 9953 9955 9958 9961 9963 9966 9970 9974 9978 9983 9987 9992 9997 10002 10005 10010 10016 10023 10030 10035 10039 10045 10053 10060 10065 10071 10076 10082 10089 10096 10102 10107 10113 10117 10124 10134 10146 10157 10167 10172 10172 10176 10183 10190 10196 10198 10202 10208 10216 10224 10231 10236 10241 10247 10252 10258
9966 9962 9959 9955 9951 9948 9945 9943 9940 9937 9934 9931 9929 9928 9926 9925 9925 9924 9924 9924 9925 9925 9925 9926 9926 9928 9930 9933 9935 9937 9939 9941 9943 9945 9949 9954 9957 9961 9965 9969 9974 9979 9983 9988 9992 9996 10002 10009 10015 10020 10026 10033 10041 10047 10052 10057 10062 10068 10076 10082 10088 10094 10099 10104 10114 10124 10136 10149 10157 10157 10159 10165 10173 10179 10183 10186 10191 10196 10204 10212 10218 10224 10230 10235 10242
9953 9949 9945 9942 9938 9934 9932 9929 9926 9924 9921 9918 9916 9914 9913 9912 9911 9910 9909 9909 9908 9908 9908 9909 9910 9911 9914 9916 9919 9921 9923 9926 9927 9929 9932 9936 9940 9944 9947 9951 9955 9960 9965 9969 9974 9978 9983 9989 9994 9999 10005 10013 10021 10027 10032 10038 10043 10049 10056 10062 10067 10073 10080 10086 10093 10102 10114 10128 10138 10143 10145 10149 10154 10160 10165 10170 10175 10179 10185 10192 10199 10206 10212 10217 10225
9941 9937 9933 9929 9925 9922 9919 9916 9913 9910 9908 9905 9903 9901 9899 9898 9897 9896 9895 9894 9894 9893 9893 9893 9894 9895 9897 9899 9902 9905 9908 9910 9912 9914 9916 9918 9922 9926 9930 9934 9938 9941 9946 9950 9954 9959 9964 9969 9973 9978 9984 9992 9999 10006 10012 10017 10024 10030 10037 10042 10047 10052 10060 10066 10073 10081 10092 10105 10117 10126 10131 10135 10139 10143 10148 10152 10158 10164 10169 10174 10180 10187 10192 10199 10206
9929 9925 9921 9917 9913 9909 9906 9903 9900 9897 9894 9892 9891 9888 9886 9885 9883 9882 9881 9880 9879 9879 9878 9878 9878 9879 9881 9883 9886 9889 9892 9894 9896 9898 9900 9903 9905 9908 9912 9917 9921 9924 9927 9931 9935 9940 9946 9951 9955 9960 9965 9972 9978 9984 9990 9997 10003 10011 10017 10022 10027 10033 10040 10046 10052 10059 10070 10081 10094 10104 10113 10120 10124 10129 10132 10134 10140 10149 10154 10157 10163 10167 10171 10178 10186
9916 9912 9908 9904 9901 9897 9894 9890 9886 9884 9882 9880 9878 9875 9873 9871 9869 9868 9867 9866 9865 9865 9864 9864 9864 9865 9866 9868 9871 9873 9876 9878 9879 9882 9885 9887 9890 9892 9896 9899 9903 9907 9910 9913 9917 9921 9927 9933 9938 9943 9948 9953 9959 9964 9969 9976 9983 9990 9997 10002 10007 10013 10020 10026 10032 10039 10048 10059 10070 10081 10091 10100 10107 10113 10117 10119 10125 10133 10137 10138 10144 10150 10154 10158 10165
9903 9898 9895 9892 9889 9885 9882 9877 9874 9871 9869 9867 9865 9862 9860 9858 9856 9855 9854 9853 9852 9851 9851 9851 9851 9851 9852 9854 9856 9858 9860 9861 9863 9866 9869 9872 9875 9878 9881 9883 9886 9889 9893 9896 9900 9904 9909 9914 9920 9926 9930 9935 9940 9944 9949 9955 9961 9969 9976 9981 9986 9993 10001 10007 10013 10020 10028 10036 10046 10057 10066 10078 10089 10095 10100 10104 10109 10115 10117 10119 10127 10134 10136 10138 10146
9890 9885 9881 9878 9875 9872 9869 9865 9862 9859 9856 9853 9852 9850 9847 9845 9843 9842 9841 9840 9838 9837 9837 9838 9838 9838 9838 9839 9841 9843 9844 9845 9847 9850 9853 9856 9860 9863 9866 9868 9870 9872 9875 9878 9883 9887 9892 9896 9901 9906 9911 9916 9920 9925 9930 9935 9940 9947 9953 9958 9965 9974 9981 9988 9995 10003 10009 10015 10024 10033 10042 10055 10067 10075 10081 10088 10092 10095 10099 10102 10110 10115 10116 10120 10131
9878 9873 9868 9864 9860 9857 9855 9853 9850 9846 9843 9840 9838 9836 9834 9831 9830 9830 9828 9827 9826 9824 9824 9825 9825 9825 9825 9826 9826 9828 9829 9830 9832 9835 9838 9840 9844 9848 9851 9853 9855 9857 9859 9861 9865 9869 9874 9879 9882 9886 9892 9897 9902 9906 9911 9915 9921 9927 9933 9938 9946 9955 9962 9970 9977 9985 9991 9996 10004 10012 10021 10033 10044 10051 10059 10068 10072 10074 10078 10082 10090 10097 10099 10104 10116
9867 9862 9857 9852 9847 9844 9842 9840 9837 9833 9830 9828 9825 9822 9820 9818 9817 9817 9816 9814 9813 9812 9812 9812 9811 9811 9812 9813 9813 9814 9815 9816 9818 9821 9823 9825 9828 9832 9835 9837 9839 9841 9843 9845 9848 9851 9856 9861 9865 9870 9874 9878 9883 9889 9893 9898 9903 9908 9914 9921 9928 9936 9944 9951 9958 9966 9972 9977 9985 9994 10003 10013 10022 10029 10036 10043 10047 10051 10057 10063 10070 10078 10082 10087 10099
9856 9851 9846 9840 9835 9832 9829 9827 9824 9821 9818 9815 9812 9809 9807 9806 9805 9804 9804 9803 9802 9801 9800 9799 9798 9798 9799 9800 9800 9800 9800 9802 9805 9807 9809 9811 9813 9817 9819 9821 9823 9825 9827 9830 9833 9836 9839 9843 9848 9853 9857 9861 9865 9869 9874 9880 9886 9890 9896 9903 9911 9919 9925 9931 9939 9947 9953 9959 9967 9978 9987 9993 9999 10007 10013 10016 10020 10026 10035 10044 10049 10056 10062 10070 10081
9845 9840 9835 9829 9824 9820 9817 9814 9811 9808 9806 9803 9800 9797 9795 9794 9792 9792 9791 9790 9789 9788 9788 9787 9786 9785 9786 9786 9787 9787 9787 9789 9792 9794 9796 9797 9799 9802 9805 9806 9808 9810 9812 9815 9819 9822 9824 9827 9831 9836 9840 9844 9848 9851 9856 9863 9868 9874 9880 9886 9893 9900 9907 9913 9920 9926 9932 9939 9948 9959 9967 9970 9976 9986 9990 9990 9995 10004 10013 10022 10028 10035 10042 10050 10062
9833 9829 9823 9818 9814 9809 9806 9803 9800 9796 9793 9790 9788 9785 9784 9782 9780 9779 9779 9778 9777 9776 9775 9775 9774 9773 9774 9774 9774 9773 9773 9776 9779 9781 9782 9783 9785 9788 9791 9792 9794 9795 9797 9799 9803 9807 9810 9813 9817 9820 9823 9827 9831 9834 9840 9846 9852 9858 9864 9869 9875 9882 9889 9896 9901 9905 9911 9918 9927 9936 9945 9949 9954 9964 9969 9970 9975 9985 9994 9999 10005 10014 10021 10030 10043
9821 9816 9812 9807 9803 9799 9795 9792 9788 9784 9781 9778 9775 9773 9772 9771 9769 9767 9766 9765 9764 9764 9763 9762 9762 9761 9761 9762 9762 9761 9760 9762 9766 9768 9768 9770 9772 9775 9777 9779 9781 9782 9782 9784 9788 9792 9796 9799 9803 9806 9808 9811 9813 9816 9822 9829 9836 9842 9846 9851 9857 9864 9871 9877 9879 9883 9890 9897 9905 9914 9922 9928 9933 9940 9947 9951 9956 9967 9973 9977 9985 9995 10001 10010 10024
9809 9804 9800 9795 9791 9788 9784 9780 9777 9773 9770 9766 9764 9762 9760 9759 9758 9756 9754 9752 9751 9751 9751 9750 9750 9749 9749 9749 9749 9749 9748 9749 9754 9755 9755 9756 9759 9762 9765 9766 9768 9768 9769 9770 9773 9777 9781 9784 9788 9791 9793 9795 9797 9800 9805 9813 9820 9826 9831 9837 9843 9849 9856 9858 9858 9864 9871 9876 9884 9893 9902 9909 9913 9918 9925 9930 9937 9947 9953 9958 9969 9977 9979 9987 10002
9797 9792 9788 9783 9780 9777 9772 9768 9765 9762 9759 9755 9752 9750 9748 9747 9746 9744 9742 9740 9739 9738 9738 9738 9738 9737 9737 9737 9737 9737 9736 9737 9741 9743 9742 9743 9746 9749 9752 9753 9754 9755 9756 9757 9760 9763 9765 9768 9771 9775 9778 9780 9782 9786 9791 9798 9807 9813 9818 9825 9830 9835 9837 9836 9838 9846 9851 9854 9864 9875 9883 9890 9894 9899 9905 9911 9917 9926 9933 9941 9951 9956 9958 9967 9981
9785 9780 9776 9772 9768 9765 9761 9757 9753 9750 9748 9744 9741 9738 9737 9736 9735 9733 9731 9729 9727 9726 9726 9726 9726 9725 9725 9725 9725 9725 9725 9725 9729 9731 9730 9731 9733 9737 9739 9740 9740 9741 9743 9745 9747 9748 9750 9752 9756 9760 9763 9765 9769 9774 9781 9787 9794 9799 9803 9809 9813 9815 9814 9814 9820 9827 9831 9836 9846 9856 9863 9870 9876 9882 9889 9896 9900 9906 9914 9923 9931 9936 9941 9950 9961
9772 9768 9764 9760 9757 9753 9749 9745 9742 9739 9736 9733 9729 9727 9726 9725 9723 9721 9719 9718 9716 9714 9714 9714 9714 9713 9713 9714 9714 9714 9714 9714 9716 9719 9719 9719 9721 9724 9726 9726 9726 9728 9730 9732 9733 9734 9736 9739 9742 9745 9749 9753 9758 9762 9768 9774 9778 9783 9787 9791 9794 9794 9794 9799 9806 9810 9814 9821 9830 9837 9844 9851 9857 9863 9870 9877 9882 9887 9894 9903 9910 9916 9923 9931 9940
9760 9755 9752 9749 9745 9741 9737 9734 9731 9728 9725 9722 9718 9716 9715 9714 9712 9710 9708 9706 9705 9703 9703 9703 9702 9701 9701 9703 9703 9704 9705 9704 9704 9706 9707 9707 9709 9712 9713 9713 9713 9715 9717 9719 9720 9722 9724 9726 9729 9732 9736 9741 9745 9749 9754 9759 9763 9768 9771 9773 9775 9776 9778 9784 9790 9794 9799 9806 9811 9817 9826 9833 9838 9843 9850 9856 9862 9868 9874 9881 9889 9895 9901 9908 9917
9748 9744 9740 9737 9733 9729 9725 9722 9720 9717 9714 9711 9707 9705 9704 9703 9701 9699 9698 9696 9694 9693 9692 9691 9691 9690 9690 9692 9693 9694 9695 9694 9693 9694 9695 9696 9697 9699 9701 9701 9702 9703 9705 9705 9707 9710 9712 9714 9717 9720 9724 9728 9732 9736 9740 9744 9748 9752 9754 9755 9758 9761 9764 9769 9774 9778 9783 9789 9793 9800 9808 9815 9821 9826 9831 9836 9842 9847 9852 9859 9866 9872 9878 9885 9894
9736 9732 9729 9726 9722 9718 9714 9711 9709 9706 9704 9700 9697 9694 9693 9692 9690 9689 9688 9686 9684 9682 9681 9681 9680 9679 9679 9680 9682 9684 9685 9684 9683 9684 9684 9685 9685 9687 9689 9690 9691 9692 9693 9693 9694 9697 9700 9702 9705 9708 9711 9715 9718 9723 9726 9729 9733 9735 9737 9739 9743 9747 9750 9755 9759 9763 9768 9773 9779 9786 9792 9797 9803 9810 9815 9819 9823 9826 9831 9838 9845 9852 9858 9865 9875
9724 9721 9718 9714 9710 9707 9703 9700 9698 9696 9693 9690 9687 9684 9683 9681 9680 9678 9678 9676 9674 9672 9670 9670 9670 9669 9668 9669 9671 9674 9675 9674 9674 9674 9674 9673 9674 9675 9677 9679 9680 9682 9682 9682 9683 9686 9688 9690 9693 9695 9698 9702 9706 9709 9712 9715 9718 9720 9722 9725 9728 9732 9736 9741 9745 9749 9754 9759 9765 9770 9776 9781 9786 9792 9798 9802 9805 9809 9816 9822 9828 9835 9840 9848 9857
9713 9710 9706 9703 9699 9696 9693 9690 9687 9685 9683 9680 9677 9675 9673 9671 9669 9668 9668 9666 9664 9662 9660 9660 9660 9659 9659 9659 9660 9663 9666 9665 9665 9665 9664 9662 9662 9664 9666 9668 9669 9671 9672 9672 9673 9675 9677 9679 9681 9683 9686 9689 9693 9696 9699 9702 9704 9706 9708 9711 9714 9718 9723 9727 9731 9735 9740 9745 9750 9755 9761 9766 9770 9776 9782 9786 9790 9797 9802 9806 9811 9816 9822 9829 9838
9702 9698 9695 9692 9688 9685 9682 9679 9676 9674 9673 9671 9668 9666 9663 9661 9659 9658 9658 9656 9653 9652 9651 9650 9650 9649 9649 9649 9650 9653 9656 9657 9656 9655 9654 9652 9651 9654 9656 9657 9658 9660 9662 9663 9664 9664 9666 9667 9669 9671 9674 9676 9680 9683 9686 9688 9691 9692 9694 9696 9700 9705 9709 9714 9718 9723 9727 9731 9735 9740 9745 9750 9755 9761 9766 9770 9777 9783 9787 9790 9795 9800 9805 9810 9817
9692 9688 9685 9681 9678 9674 9672 9669 9666 9664 9662 9661 9659 9657 9655 9652 9649 9648 9648 9646 9643 9642 9642 9640 9640 9640 9639 9639 9641 9643 9646 9648 9648 9646 9644 9641 9640 9643 9646 9646 9648 9651 9653 9653 9654 9653 9654 9657 9659 9660 9662 9664 9667 9671 9673 9676 9678 9679 9681 9683 9686 9691 9696 9701 9706 9711 9715 9719 9722 9725 9729 9734 9740 9746 9751 9756 9762 9768 9772 9776 9781 9787 9790 9794 9800
9682 9678 9675 9671 9667 9664 9662 9659 9656 9654 9652 9650 9649 9648 9646 9644 9641 9639 9638 9636 9634 9633 9632 9631 9630 9630 9629 9630 9632 9634 9635 9638 9639 9637 9634 9631 9630 9633 9636 9637 9638 9642 9643 9643 9643 9643 9645 9647 9648 9650 9651 9653 9656 9659 9661 9663 9665 9667 9669 9671 9674 9679 9683 9689 9694 9698 9702 9706 9709 9711 9715 9719 9725 9731 9736 9742 9748 9752 9756 9761 9767 9771 9774 9778 9784
9672 9669 9666 9662 9658 9655 9652 9649 9647 9644 9642 9640 9639 9638 9637 9635 9632 9630 9629 9627 9625 9623 9623 9622 9621 9621 9620 9621 9623 9624 9625 9628 9629 9628 9625 9622 9620 9622 9626 9628 9629 9631 9632 9634 9635 9635 9636 9637 9638 9639 9640 9642 9644 9647 9649 9652 9654 9656 9658 9660 9663 9666 9670 9675 9680 9685 9688 9692 9695 9698 9702 9705 9710 9715 9721 9727 9733 9737 9740 9745 9751 9755 9759 9764 9770
9663 9659 9656 9653 9649 9646 9643 9640 9637 9635 9633 9631 9629 9628 9627 9627 9625 9621 9619 9618 9617 9615 9613 9612 9612 9612 9612 9613 9615 9616 9616 9618 9620 9619 9616 9613 9611 9613 9617 9619 9620 9621 9623 9624 9625 9626 9627 9628 9628 9629 9630 9631 9633 9636 9638 9640 9643 9645 9647 9649 9651 9654 9657 9662 9667 9671 9675 9678 9681 9685 9689 9693 9697 9701 9706 9712 9718 9721 9725 9730 9735 9739 9744 9750 9755
9654 9650 9646 9643 9640 9637 9634 9631 9628 9626 9624 9622 9620 9618 9617 9617 9617 9614 9610 9609 9608 9607 9606 9604 9603 9603 9604 9604 9606 9607 9608 9609 9610 9611 9608 9604 9603 9605 9608 9610 9612 9613 9614 9614 9615 9616 9618 9619 9618 9619 9620 9622 9624 9625 9627 9630 9632 9634 9636 9638 9640 9642 9646 9650 9654 9658 9661 9665 9668 9672 9676 9680 9684 9688 9693 9698 9702 9707 9711 9715 9720 9724 9729 9735 9740
9646 9641 9638 9634 9631 9628 9625 9622 9620 9617 9615 9613 9611 9609 9607 9606 9607 9607 9604 9600 9598 9598 9597 9596 9595 9595 9596 9596 9597 9599 9600 9600 9601 9601 9599 9596 9595 9596 9599 9603 9605 9605 9604 9604 9606 9607 9609 9609 9608 9610 9612 9613 9614 9616 9617 9620 9621 9623 9625 9627 9629 9632 9635 9638 9642 9646 9649 9652 9655 9659 9663 9667 9671 9676 9680 9684 9689 9693 9697 9701 9705 9709 9715 9720 9726
9637 9633 9629 9626 9622 9619 9616 9614 9611 9609 9607 9604 9602 9601 9599 9597 9596 9597 9597 9594 9590 9588 9587 9587 9586 9587 9588 9588 9588 9590 9591 9592 9591 9591 9590 9589 9588 9589 9592 9595 9596 9595 9595 9596 9598 9598 9599 9599 9599 9601 9603 9604 9605 9607 9608 9610 9611 9613 9615 9618 9619 9621 9624 9627 9630 9633 9637 9640 9643 9646 9650 9655 9659 9663 9667 9671 9676 9680 9684 9688 9692 9696 9702 9708 9714
9628 9625 9621 9617 9614 9611 9609 9606 9603 9600 9598 9596 9594 9592 9591 9590 9588 9587 9588 9587 9585 9581 9578 9576 9576 9577 9579 9580 9580 9581 9583 9584 9583 9582 9581 9581 9581 9583 9585 9586 9586 9586 9587 9589 9589 9589 9590 9590 9591 9592 9593 9594 9596 9598 9599 9600 9602 9604 9606 9608 9610 9612 9614 9616 9619 9622 9625 9628 9632 9636 9639 9643 9647 9651 9655 9659 9663 9668 9672 9676 9681 9685 9690 9696 9701
9619 9616 9612 9609 9605 9603 9600 9598 9595 9593 9590 9588 9586 9584 9583 9582 9580 9579 9578 9578 9577 9576 9573 9569 9567 9567 9569 9571 9573 9573 9575 9576 9575 9573 9572 9573 9574 9576 9576 9577 9578 9578 9579 9580 9581 9581 9581 9582 9583 9584 9585 9586 9588 9589 9590 9592 9593 9595 9597 9599 9601 9603 9604 9606 9609 9612 9615 9618 9621 9625 9629 9633 9636 9640 9644 9647 9652 9656 9660 9665 9670 9674 9679 9684 9688
9611 9607 9604 9600 9597 9594 9592 9589 9587 9585 9582 9580 9579 9577 9575 9574 9573 9572 9571 9570 9568 9568 9566 9564 9561 9560 9560 9562 9564 9565 9566 9567 9566 9565 9565 9566 9567 9568 9569 9570 9570 9571 9571 9572 9572 9573 9573 9574 9575 9576 9577 9579 9580 9581 9582 9584 9585 9586 9588 9590 9592 9594 9596 9597 9600 9602 9605 9608 9611 9615 9619 9622 9626 9629 9633 9636 9640 9644 9649 9653 9657 9662 9666 9671 9675
9604 9600 9596 9593 9589 9586 9583 9581 9579 9577 9575 9573 9571 9569 9567 9566 9565 9564 9563 9562 9561 9559 9558 9557 9556 9554 9553 9554 9556 9558 9558 9558 9558 9557 9558 9559 9560 9561 9561 9562 9563 9564 9564 9564 9564 9565 9566 9567 9567 9569 9570 9571 9572 9573 9574 9576 9577 9578 9580 9582 9584 9585 9587 9589 9591 9594 9596 9599 9602 9605 9609 9612 9616 9619 9622 9626 9629 9633 9637 9641 9645 9650 9654 9659 9664
9596 9593 9589 9585 9582 9578 9576 9573 9571 9569 9567 9565 9563 9561 9559 9558 9557 9556 9555 9554 9553 9552 9551 9550 9549 9548 9547 9547 9548 9550 9551 9550 9550 9549 9550 9552 9553 9554 9554 9555 9556 9556 9556 9557 9558 9559 9559 9560 9561 9562 9563 9564 9565 9566 9567 9568 9569 9571 9573 9574 9576 9577 9579 9581 9583 9585 9588 9591 9594 9597 9600 9603 9606 9610 9613 9616 9619 9623 9627 9631 9635 9640 9644 9649 9653
9589 9585 9582 9578 9575 9571 9569 9566 9563 9561 9559 9557 9555 9554 9552 9551 9550 9549 9547 9546 9545 9544 9544 9542 9541 9541 9541 9540 9541 9542 9543 9543 9543 9542 9543 9544 9545 9546 9546 9547 9548 9549 9549 9550 9551 9552 9553 9553 9554 9555 9556 9557 9558 9559 9560 9561 9562 9563 9565 9567 9568 9570 9571 9573 9575 9577 9580 9583 9585 9588 9591 9594 9597 9600 9604 9607 9611 9614 9618 9622 9626 9630 9634 9639 9643
9582 9578 9575 9571 9567 9564 9561 9559 9556 9554 9551 9549 9548 9546 9545 9543 9542 9541 9540 9539 9538 9537 9536 9535 9534 9534 9534 9534 9533 9534 9535 9535 9536 9535 9536 9537 9538 9539 9539 9540 9541 9542 9542 9543 9544 9545 9546 9547 9547 9549 9550 9551 9551 9552 9553 9554 9555 9557 9558 9560 9561 9562 9564 9566 9568 9570 9572 9575 9578 9580 9583 9585 9588 9592 9595 9599 9602 9605 9609 9613 9617 9621 9625 9629 9633
9574 9571 9568 9564 9561 9557 9554 9552 9550 9547 9544 9542 9540 9539 9538 9536 9535 9534 9533 9532 9531 9530 9529 9528 9527 9527 9527 9527 9527 9527 9527 9527 9528 9528 9529 9530 9531 9532 9532 9533 9534 9535 9535 9536 9538 9539 9539 9540 9541 9543 9544 9544 9545 9546 9546 9547 9549 9550 9551 9553 9554 9555 9557 9559 9560 9562 9565 9567 9570 9572 9575 9578 9580 9583 9587 9590 9594 9597 9600 9604 9608 9612 9616 9620 9624
9566 9563 9560 9557 9554 9551 9547 9545 9543 9540 9538 9535 9533 9531 9530 9529 9528 9527 9526 9525 9524 9523 9522 9521 9520 9520 9520 9520 9520 9520 9520 9520 9521 9522 9522 9523 9524 9525 9525 9526 9527 9528 9528 9530 9531 9532 9533 9534 9535 9536 9538 9538 9539 9540 9540 9541 9542 9544 9545 9546 9548 9549 9550 9552 9554 9556 9558 9560 9563 9565 9568 9570 9573 9576 9579 9582 9586 9589 9593 9596 9600 9604 9607 9611 9615
9559 9556 9553 9550 9547 9544 9541 9538 9536 9534 9531 9529 9527 9525 9523 9522 9521 9520 9519 9518 9517 9516 9515 9514 9513 9513 9513 9514 9514 9514 9514 9513 9514 9515 9516 9517 9517 9518 9518 9519 9520 9521 9522 9523 9524 9525 9526 9527 9529 9530 9531 9532 9533 9534 9534 9535 9536 9537 9539 9540 9542 9543 9544 9546 9548 9549 9551 9553 9556 9558 9561 9563 9566 9569 9572 9575 9578 9582 9585 9589 9592 9596 9600 9603 9607
9552 9549 9546 9543 9540 9537 9534 9531 9529 9527 9525 9523 9521 9518 9517 9515 9514 9513 9512 9511 9510 9509 9508 9507 9507 9506 9506 9507 9507 9508 9508 9507 9508 9508 9509 9510 9511 9511 9511 9512 9513 9514 9515 9516 9517 9519 9519 9520 9522 9524 9525 9526 9527 9527 9528 9529 9530 9531 9533 9534 9536 9537 9539 9540 9542 9544 9545 9547 9550 9552 9554 9557 9559 9562 9565 9568 9571 9575 9578 9582 9585 9588 9592 9595 9599
9545 9542 9539 9536 9533 9530 9527 9525 9522 9520 9519 9517 9515 9513 9511 9509 9508 9507 9506 9505 9504 9503 9502 9501 9500 9500 9499 9500 9501 9501 9501 9501 9501 9502 9503 9504 9505 9504 9504 9505 9506 9507 9508 9509 9511 9512 9513 9514 9515 9517 9519 9520 9521 9521 9522 9523 9525 9526 9527 9529 9530 9532 9533 9535 9536 9538 9540 9542 9544 9546 9548 9551 9553 9556 9559 9562 9565 9568 9571 9575 9578 9581 9585 9588 9592
9539 9536 9533 9530 9527 9524 9521 9518 9516 9514 9512 9510 9509 9507 9505 9503 9502 9500 9499 9499 9498 9497 9496 9495 9494 9494 9493 9493 9494 9495 9495 9495 9495 9495 9496 9498 9498 9498 9498 9498 9500 9501 9502 9503 9504 9505 9507 9508 9509 9511 9513 9514 9515 9516 9517 9518 9519 9520 9522 9524 9525 9526 9528 9529 9531 9533 9535 9536 9538 9541 9543 9545 9548 9550 9553 9556 9559 9562 9565 9568 9572 9575 9579 9582 9586
9533 9529 9526 9523 9520 9517 9515 9512 9509 9507 9505 9504 9502 9500 9499 9497 9496 9494 9493 9492 9492 9491 9490 9489 9488 9487 9487 9487 9487 9488 9489 9489 9489 9489 9490 9491 9492 9492 9492 9492 9494 9495 9496 9497 9498 9499 9501 9501 9503 9505 9507 9508 9509 9510 9511 9512 9514 9515 9516 9518 9520 9521 9523 9524 9526 9528 9529 9531 9533 9535 9537 9540 9542 9544 9547 9550 9553 9556 9559 9562 9565 9569 9573 9576 9580
9527 9523 9520 9517 9514 9511 9508 9506 9503 9501 9499 9497 9495 9494 9492 9491 9489 9488 9487 9486 9485 9485 9484 9483 9482 9481 9480 9480 9480 9481 9482 9482 9483 9483 9483 9484 9486 9486 9486 9486 9488 9489 9490 9491 9492 9494 9495 9496 9497 9499 9501 9502 9503 9505 9506 9507 9508 9510 9511 9513 9515 9516 9518 9520 9521 9523 9524 9526 9528 9530 9533 9535 9537 9539 9542 9544 9547 9550 9553 9556 9560 9563 9567 9570 9574
9520 9517 9514 9511 9508 9505 9502 9499 9497 9494 9492 9490 9488 9487 9485 9484 9483 9481 9480 9479 9479 9478 9478 9477 9476 9475 9474 9473 9473 9474 9475 9476 9477 9477 9477 9478 9479 9480 9480 9480 9482 9484 9485 9485 9486 9488 9489 9490 9491 9493 9495 9497 9498 9499 9501 9502 9503 9505 9506 9508 9510 9511 9513 9515 9517 9518 9520 9522 9524 9526 9528 9530 9532 9534 9537 9539 9542 9545 9548 9551 9554 9558 9561 9564 9568
9514 9511 9507 9504 9501 9498 9496 9493 9491 9488 9486 9484 9482 9480 9478 9477 9476 9475 9474 9473 9472 9472 9471 9471 9470 9469 9468 9468 9467 9467 9468 9469 9470 9471 9471 9472 9473 9474 9474 9475 9476 9478 9479 9480 9481 9483 9484 9485 9486 9488 9490 9492 9493 9494 9496 9497 9498 9500 9501 9503 9505 9506 9508 9510 9512 9514 9516 9517 9519 9521 9523 9525 9528 9530 9532 9535 9537 9540 9543 9546 9549 9552 9555 9559 9562